Location: Bocchiglicro
(39.4167°N, 16.7500°E)
Time: 01:44:06
(UTC+00:00)

GEOS 3 Rocket - Pass Details

Date: 07 June 2020
Orbit: 772 x 847 km, 115.0° (Epoch: 05 July)

Event Time Altitude Azimuth Distance (km) Brightness Sun altitude
Rises 01:46:43 0° 155° (SSE) 3,274 6.5 -15.6°
Reaches altitude 10° 01:49:01 10° 159° (SSE) 2,358 5.8 -15.3°
Maximum altitude 01:54:03 57° 238° (WSW) 943 3.6 -14.7°
Drops below altitude 10° 01:59:13 10° 317° (NW) 2,420 6.1 -14.0°
Sets 02:01:36 0° 322° (NW) 3,367 6.9 -13.7°
